伽利略0217星导航星座 (GSAT0217 (GALILEO 21))

导读 | 豆包AI

GALILEO 21 (2C7,又名Alexandre)是欧洲空间局(ESA)伽利略全球卫星导航系统的一颗中地球轨道导航卫星,由OHB集团建造平台、萨里卫星技术有限公司研制载荷。它于2017年12月12日在法属圭亚那航天中心由阿丽亚娜5 ES火箭发射升空,卫星质量约733千克,设计寿命12年,运行于倾角56度、高度约23 616千米的圆轨道,为全球用户提供高精度定位、导航与授时服务,是伽利略组网的重要组成部分。

基本信息
目录编号:
43057
目录名称:
GALILEO 21 (2C7)
国际标识:
2017-079C
轨道中心:
EARTH
卫星名称:
伽利略0217星
卫星全名:
伽利略0217星导航星座 (GSAT0217 (GALILEO 21))
卫星状态:
在轨 (已飞行3059 天)
发射日期:
2017-12-12 UTC
国别 :
(ESA)
星等 :
--
轨道信息
数据来源 国际轨道数据
星历时间: 2026-04-26T15:43:19+0800
2天前
查看轨道信息
半长轴: 29600.24km
偏心率: 0.0002278
轨道倾角: 55.088°
近地点辐角 305.001°
升交点赤经 222.931°
平近点角 54.968°
近地点: 23215.36km
远地点: 23228.846km
周期: 844.700分钟
每日圈数: 1.704747
详细信息
平衡模式:
三轴稳定
覆盖范围:
全球
运营商:
欧盟空间计划局
运营商所在国:
法国大都会
使用方式:
暂无
卫星简介
伽利略定位系统(Galileo)是一个全球导航卫星系统,于2016年投入使用由欧盟通过ESA创建,由欧盟空间计划局(EUSPA)运营。该系统有两个地面操控站,并且在高纬度地区提供比其他系统更好的定位服务。该卫星仍在工作。
2D轨道图
3D轨道图
轨道高度分析图
轨道倾角分析图
轨道综合分析图
查看轨道综合分析图